Wind_Speed
27 26 24 22 21 20 19 17 16 15 15 16 15 13 14 15 15 15 15 14 13 13 14 14 14 14 13 13 14 14 15 15 14 14 13 13 13 13 13 12 12 11
29 27 25 24 22 21 19 18 17 16 16 17 16 16 15 13 13 15 15 14 14 14 14 14 14 14 14 14 13 14 14 15 14 14 13 13 13 13 13 12 12 11
30 28 27 25 23 22 21 19 18 17 17 18 17 17 15 13 12 14 14 14 14 13 13 13 13 14 15 14 14 14 14 13 14 14 14 14 14 14 13 12 12 11
30 29 28 26 24 23 22 21 19 18 19 20 19 17 15 14 13 13 13 13 13 13 13 13 14 15 15 15 15 14 13 13 14 14 14 14 14 14 14 13 13 12
31 30 28 27 26 25 23 21 20 19 20 21 20 18 18 17 15 13 13 14 13 13 13 14 14 15 15 16 16 15 15 14 14 14 15 15 15 15 15 14 14 13
30 30 29 28 27 26 24 22 21 21 22 22 21 20 20 19 17 15 15 15 14 14 14 14 14 15 16 16 16 17 17 16 16 15 16 16 15 15 16 15 14 14
29 29 28 28 27 26 25 23 23 24 24 22 20 21 21 20 18 18 17 16 15 15 15 15 15 15 16 16 16 17 18 18 17 17 17 16 16 17 16 15 15 14
29 28 28 28 28 27 26 26 25 26 26 23 20 21 22 20 19 19 18 17 16 16 16 16 15 15 16 17 17 17 18 19 19 18 17 17 17 17 17 16 16 15
30 29 29 29 29 28 28 27 27 27 26 23 22 22 23 22 21 20 19 18 17 17 17 17 17 17 17 17 17 17 17 18 19 19 18 19 19 18 16 17 17 16
29 29 29 29 29 29 29 28 27 26 25 23 22 22 23 23 23 21 20 19 19 18 18 18 18 18 18 18 17 17 17 17 18 19 19 20 20 19 17 17 18 18
28 28 28 28 29 29 29 26 25 24 24 23 22 22 22 22 22 22 21 21 21 20 19 18 19 19 19 18 18 17 18 18 18 19 20 21 21 19 18 18 18 17
27 27 27 27 28 27 25 23 23 24 23 23 22 22 21 21 22 22 22 22 22 21 20 19 19 19 19 19 18 17 17 18 19 19 21 22 22 20 19 19 19 18
27 27 27 27 26 23 21 21 21 22 23 24 23 22 22 22 22 22 22 22 22 21 20 20 20 19 19 19 19 18 18 18 20 21 21 21 21 20 20 21 20 19
29 28 28 27 24 21 20 21 20 20 22 23 23 22 22 22 22 23 22 22 21 20 20 20 20 20 20 20 19 19 19 19 20 20 20 20 20 20 21 21 21 20
30 30 29 27 24 22 21 21 20 20 21 21 21 21 22 21 20 21 21 22 22 21 20 21 21 20 20 20 20 19 19 20 20 20 21 20 19 20 21 22 21 21
29 30 29 26 24 24 23 21 20 20 20 20 20 20 21 20 19 18 19 20 21 21 21 21 21 21 21 20 19 18 18 19 20 21 21 20 18 19 21 22 21 21
28 30 28 25 23 23 23 22 21 21 21 20 20 20 20 20 19 19 19 19 20 21 20 20 21 21 20 18 17 17 17 18 19 21 21 20 19 20 21 21 20 19
27 27 23 20 21 21 21 22 22 22 22 21 21 21 20 19 19 20 20 20 20 20 20 20 20 20 18 17 18 18 18 18 18 20 21 22 22 21 20 19 17 17
25 25 21 19 20 20 20 20 21 21 20 20 20 21 21 21 20 20 20 21 21 21 21 21 20 19 19 19 19 18 18 19 19 19 20 22 22 21 20 18 16 17
24 24 22 21 20 20 20 19 19 19 20 19 19 20 21 22 21 21 20 21 23 23 22 22 21 20 20 20 20 18 18 19 20 19 18 20 21 20 20 18 17 17
25 24 23 22 21 20 20 19 18 19 19 19 19 20 19 19 19 20 20 20 21 23 23 23 22 22 21 21 20 18 18 19 20 20 20 20 20 21 20 19 19 20
25 25 24 23 22 21 20 20 19 18 18 19 20 20 19 19 18 18 18 17 18 21 23 23 23 22 22 21 20 18 18 19 21 22 21 20 20 22 21 20 21 21
27 26 25 24 23 22 21 20 19 19 19 20 21 22 22 22 21 19 17 17 17 18 20 22 23 23 22 21 20 19 19 19 21 23 22 20 20 21 22 21 22 22
29 27 26 25 24 23 22 21 20 20 21 21 22 23 24 24 24 22 19 18 17 17 18 20 21 22 23 22 21 20 19 19 21 23 23 21 19 20 21 21 22 23
30 28 26 25 24 23 21 20 19 19 20 21 22 23 24 25 26 25 22 20 18 18 19 20 20 21 23 23 22 21 20 20 21 22 22 20 18 17 19 20 22 23
30 28 26 24 23 21 19 17 16 17 19 19 19 20 22 24 27 27 25 21 18 17 19 22 22 22 23 24 24 23 21 21 22 22 21 20 18 17 17 18 21 23
Wind_Direction
200 202 205 208 214 220 225 228 229 230 232 231 227 224 226 228 227 223 221 220 218 215 215 216 216 217 217 217 217 218 220 221 220 219 221 224 224 225 227 228 228 227
204 206 209 212 217 224 228 230 230 229 230 230 225 221 221 222 225 224 221 219 220 219 217 214 213 214 213 211 213 214 217 219 217 217 217 219 222 224 227 226 225 225
211 211 214 216 221 226 228 229 229 229 231 231 225 220 217 215 220 225 223 220 219 219 216 211 212 214 210 207 207 211 215 216 216 216 214 216 219 222 225 224 222 221
215 216 218 221 224 227 228 228 229 229 232 232 226 218 214 212 215 222 223 220 217 217 215 210 211 216 214 211 209 210 213 215 215 214 212 216 218 219 221 220 218 218
218 220 222 224 225 227 227 228 229 230 231 232 226 218 215 214 212 213 219 219 216 216 216 212 213 216 216 216 215 213 214 215 215 211 210 215 217 215 215 215 217 216
220 221 223 223 223 225 227 230 231 232 233 231 224 219 218 218 214 212 218 222 219 218 218 215 215 215 214 218 220 219 218 219 217 213 212 215 215 215 216 216 217 215
220 220 221 223 224 226 229 232 234 234 232 229 223 219 219 219 217 215 218 223 222 221 221 219 217 216 215 217 221 222 222 221 219 215 213 215 216 215 216 217 218 217
222 223 223 225 227 230 232 233 233 232 230 227 224 221 218 218 219 216 216 220 222 223 224 221 216 213 214 218 221 224 223 221 219 217 214 215 218 218 217 217 216 217
226 226 228 229 231 232 232 232 231 230 228 226 224 223 220 218 218 216 214 216 218 221 224 224 219 213 214 217 218 220 222 222 222 220 216 216 220 221 220 218 217 218
225 226 227 229 230 231 231 230 229 227 226 224 222 221 219 218 217 214 212 213 214 215 218 221 223 223 223 223 220 217 218 221 223 222 218 218 223 225 222 222 224 224
220 221 223 224 226 228 228 226 225 225 224 220 217 216 214 215 215 213 211 211 213 214 213 215 220 225 229 231 228 223 219 219 221 222 221 222 226 228 225 226 229 230
215 215 218 220 222 223 223 223 223 222 220 219 217 214 212 213 215 215 213 213 215 216 214 215 218 219 224 230 231 229 227 223 220 220 223 225 228 230 228 228 229 229
214 214 217 220 222 220 219 222 223 220 219 220 219 215 214 215 217 218 218 216 216 217 216 218 220 219 221 226 228 229 231 229 224 223 226 229 230 230 229 230 230 228
218 218 219 222 223 221 221 223 223 218 218 222 222 219 218 219 220 222 222 220 217 217 218 219 220 221 223 225 226 226 228 229 227 226 228 230 229 227 227 228 228 228
221 221 221 221 223 223 223 223 222 219 218 219 222 222 220 219 221 223 223 222 219 217 219 220 219 221 223 224 225 226 228 228 226 226 229 230 229 227 228 227 225 227
221 222 221 219 219 222 221 219 219 220 217 215 217 219 219 218 218 220 221 221 220 219 220 221 220 222 223 222 223 224 226 229 228 229 232 233 233 231 231 227 225 227
220 221 219 216 216 217 216 213 214 215 213 212 214 216 218 218 218 219 219 219 220 220 221 222 225 227 224 221 220 220 221 226 228 231 233 233 232 231 231 230 230 231
218 218 214 210 212 212 211 210 212 212 211 211 213 214 216 219 220 220 220 220 220 221 222 223 227 229 223 219 222 221 219 219 222 228 233 231 229 230 231 233 233 232
214 215 209 204 207 207 206 209 211 212 212 212 213 213 214 218 222 222 221 221 222 223 224 225 228 228 222 221 226 227 223 219 218 224 231 231 230 231 231 231 228 227
213 216 215 210 209 208 206 207 207 209 212 212 212 214 214 217 221 221 220 222 223 223 225 228 231 230 224 223 225 227 227 224 220 221 225 227 228 228 228 228 226 226
211 212 214 213 212 212 211 211 211 211 213 213 214 216 215 216 219 219 219 221 222 223 225 229 233 232 226 224 226 227 227 225 221 219 222 224 226 228 229 230 230 229
209 209 209 210 211 211 212 214 214 216 217 218 219 220 218 217 218 218 221 220 220 224 225 226 231 232 226 223 226 227 226 224 221 220 222 224 226 230 232 232 231 229
209 210 210 210 211 213 214 214 214 216 218 220 222 223 223 223 220 217 219 221 220 223 225 224 228 230 226 223 225 227 226 225 222 221 222 223 226 231 233 233 231 229
211 212 212 211 213 216 218 219 218 218 218 219 221 223 224 225 224 221 219 220 220 223 224 224 227 230 227 224 226 228 228 227 223 222 223 223 225 231 233 234 234 233
213 214 215 215 215 219 224 226 224 220 217 218 220 223 224 224 224 224 220 218 221 224 225 223 224 229 231 227 227 230 229 227 223 221 222 223 222 228 234 236 238 239
216 217 218 219 221 226 230 230 229 224 220 221 220 222 223 222 222 223 220 218 220 223 226 226 224 228 232 230 230 231 229 226 224 222 223 223 220 224 231 236 240 244
Height
1517 1519 1520 1521 1522 1523 1524 1526 1527 1528 1528 1529 1529 1530 1530 1530 1531 1531 1532 1532 1533 1534 1535 1536 1537 1538 1539 1540 1541 1542 1542 1543 1544 1545 1545 1546 1546 1547 1547 1548 1548 1549
1515 1517 1518 1519 1520 1522 1523 1524 1525 1526 1526 1527 1528 1528 1529 1529 1530 1530 1530 1531 1532 1533 1533 1535 1536 1537 1538 1539 1540 1540 1541 1542 1542 1543 1544 1545 1545 1546 1546 1547 1548 1548
1513 1514 1516 1517 1519 1520 1521 1522 1523 1524 1524 1525 1526 1526 1527 1528 1529 1529 1529 1530 1531 1532 1532 1534 1535 1536 1536 1537 1538 1539 1539 1540 1541 1542 1543 1543 1544 1545 1545 1546 1547 1547
1510 1512 1514 1516 1517 1518 1519 1520 1521 1522 1522 1523 1524 1525 1525 1526 1527 1527 1528 1529 1530 1531 1531 1533 1534 1534 1535 1536 1537 1538 1538 1539 1540 1540 1541 1542 1542 1543 1544 1545 1546 1546
1508 1510 1512 1513 1514 1516 1517 1518 1519 1519 1520 1521 1522 1523 1523 1524 1525 1526 1527 1527 1528 1529 1530 1531 1532 1533 1534 1535 1535 1536 1537 1538 1538 1539 1539 1540 1540 1541 1542 1543 1544 1545
1505 1507 1509 1511 1512 1513 1514 1515 1516 1517 1518 1519 1519 1520 1521 1522 1523 1524 1525 1525 1526 1527 1529 1530 1530 1531 1532 1533 1534 1535 1535 1536 1537 1537 1537 1538 1539 1539 1540 1541 1542 1543
1503 1505 1506 1508 1509 1510 1511 1512 1514 1514 1515 1516 1517 1518 1519 1520 1521 1522 1523 1524 1524 1525 1526 1528 1529 1529 1530 1531 1532 1533 1533 1534 1535 1536 1536 1537 1538 1538 1538 1539 1540 1541
1500 1502 1503 1505 1506 1507 1508 1510 1511 1512 1513 1514 1514 1515 1517 1518 1519 1520 1521 1522 1523 1524 1525 1526 1527 1528 1528 1529 1530 1531 1531 1532 1533 1534 1535 1536 1536 1537 1537 1538 1539 1540
1497 1499 1500 1502 1503 1504 1505 1507 1508 1509 1510 1511 1512 1513 1514 1516 1517 1518 1519 1520 1521 1522 1523 1524 1524 1525 1526 1527 1528 1529 1529 1530 1531 1532 1533 1534 1535 1535 1536 1536 1537 1538
1494 1495 1497 1499 1500 1501 1502 1504 1505 1506 1507 1509 1510 1511 1512 1513 1514 1516 1517 1518 1519 1520 1521 1522 1522 1523 1524 1524 1525 1527 1528 1529 1529 1530 1531 1532 1533 1533 1534 1535 1535 1536
1491 1492 1494 1495 1497 1498 1499 1501 1502 1503 1505 1506 1507 1508 1510 1511 1512 1513 1515 1516 1517 1518 1519 1520 1520 1521 1521 1522 1523 1524 1526 1527 1528 1529 1530 1530 1531 1531 1532 1533 1533 1534
1488 1490 1491 1493 1494 1496 1497 1498 1499 1501 1503 1504 1505 1506 1507 1508 1510 1511 1512 1513 1514 1515 1517 1518 1518 1519 1520 1520 1521 1522 1523 1524 1526 1527 1527 1528 1529 1530 1530 1531 1531 1533
1485 1487 1489 1490 1492 1493 1494 1496 1497 1499 1501 1501 1502 1504 1505 1506 1508 1509 1510 1511 1512 1513 1514 1515 1516 1517 1517 1518 1519 1520 1521 1522 1523 1524 1525 1526 1527 1528 1529 1529 1530 1531
1483 1485 1486 1488 1490 1491 1492 1493 1495 1497 1498 1499 1500 1501 1503 1504 1506 1507 1508 1509 1510 1511 1512 1513 1514 1514 1515 1515 1516 1517 1518 1519 1520 1522 1523 1524 1525 1526 1527 1527 1528 1529
1480 1482 1484 1486 1487 1488 1490 1492 1493 1495 1496 1497 1498 1499 1501 1503 1504 1505 1506 1506 1508 1509 1510 1510 1511 1512 1512 1513 1514 1515 1516 1517 1518 1519 1520 1521 1522 1523 1525 1525 1526 1527
1478 1479 1481 1483 1485 1486 1488 1490 1491 1493 1494 1495 1496 1497 1499 1500 1501 1502 1503 1504 1505 1506 1507 1508 1508 1509 1509 1510 1512 1513 1514 1515 1516 1517 1518 1519 1520 1521 1523 1524 1524 1525
1475 1476 1478 1480 1482 1484 1486 1487 1489 1490 1492 1493 1494 1495 1497 1498 1499 1500 1501 1502 1503 1504 1505 1505 1506 1506 1507 1508 1509 1510 1512 1513 1514 1514 1515 1517 1518 1519 1521 1522 1522 1523
1472 1474 1476 1478 1480 1481 1483 1485 1487 1488 1490 1491 1492 1493 1495 1496 1497 1497 1499 1500 1501 1501 1502 1503 1504 1504 1505 1506 1507 1508 1509 1510 1511 1512 1513 1514 1516 1517 1519 1520 1521 1522
1470 1471 1473 1476 1477 1479 1481 1483 1485 1486 1487 1489 1490 1491 1493 1494 1494 1495 1496 1497 1498 1499 1500 1501 1501 1502 1503 1504 1504 1505 1507 1508 1509 1510 1511 1512 1513 1515 1517 1518 1519 1519
1467 1469 1471 1473 1475 1477 1479 1481 1482 1484 1485 1487 1488 1489 1490 1491 1492 1493 1494 1495 1496 1497 1498 1498 1499 1500 1501 1502 1502 1503 1504 1505 1506 1508 1509 1510 1511 1512 1513 1514 1515 1517
1464 1466 1469 1471 1473 1475 1476 1478 1480 1481 1483 1484 1486 1487 1488 1489 1489 1490 1491 1492 1493 1494 1495 1496 1497 1497 1499 1500 1500 1501 1501 1502 1504 1505 1506 1508 1509 1509 1511 1512 1513 1514
1462 1464 1466 1468 1470 1472 1474 1475 1477 1479 1480 1482 1483 1484 1485 1486 1487 1488 1488 1489 1490 1491 1492 1493 1494 1495 1497 1497 1498 1498 1499 1500 1501 1502 1504 1505 1506 1507 1509 1510 1511 1512
1459 1461 1463 1465 1467 1469 1471 1473 1475 1476 1478 1479 1480 1481 1482 1483 1484 1485 1486 1487 1488 1489 1490 1490 1491 1492 1494 1495 1496 1496 1496 1497 1498 1500 1501 1503 1504 1505 1507 1508 1509 1510
1455 1457 1459 1462 1464 1466 1468 1470 1472 1474 1475 1476 1477 1478 1479 1480 1481 1482 1483 1484 1485 1486 1487 1488 1489 1490 1492 1493 1493 1494 1494 1495 1496 1497 1499 1500 1502 1504 1505 1506 1507 1507
1451 1453 1456 1458 1460 1462 1464 1467 1469 1470 1472 1473 1474 1475 1475 1476 1477 1479 1480 1481 1482 1483 1484 1485 1486 1487 1489 1490 1491 1492 1493 1493 1494 1495 1496 1498 1500 1501 1503 1503 1504 1505
1447 1449 1451 1454 1456 1458 1460 1463 1465 1467 1468 1469 1470 1471 1472 1473 1474 1475 1477 1478 1480 1480 1480 1482 1483 1485 1486 1487 1488 1489 1490 1491 1492 1493 1493 1495 1497 1499 1500 1501 1502 1502